GFSNE_250_spd_216.txt.gz
Wind_Speed
110 108 107 110 107 109 113 116 115 110 103 102 98 96 98 95 91 91 89 89 88 90 90 93 90 85 82 84 82 83 85 85 84 81 79 79 79 83
122 121 121 119 117 116 116 115 120 116 111 109 104 105 106 103 106 104 98 93 91 85 90 93 94 91 90 89 86 84 85 83 85 86 85 82 83 88
131 130 132 126 121 120 118 118 119 115 111 114 113 110 109 105 103 103 103 102 105 100 97 98 97 96 90 88 88 86 89 89 87 88 88 89 88 88
132 130 128 127 125 124 125 125 127 124 118 113 114 112 110 108 102 102 101 103 103 102 100 102 105 103 95 91 89 92 87 87 96 88 87 90 89 91
126 124 127 130 132 130 127 127 128 127 125 122 121 114 110 106 105 104 107 110 104 105 99 101 105 100 98 95 91 90 95 93 88 87 91 94 98 99
130 131 129 128 126 124 123 121 122 124 126 124 123 119 115 108 106 101 103 106 107 109 100 97 104 103 99 99 96 92 95 93 91 92 89 93 98 102
124 118 111 104 102 101 100 98 99 99 105 118 123 112 113 98 101 100 104 102 106 104 100 99 104 103 100 102 98 97 97 100 101 97 99 101 106 105
96 91 86 81 78 78 77 78 76 80 87 99 97 106 105 88 95 91 89 91 92 91 100 102 104 105 105 105 107 106 104 101 104 105 105 108 113 115
80 76 71 67 65 65 63 63 65 68 74 81 85 89 91 88 107 110 96 95 97 104 94 98 102 105 108 107 108 109 115 114 113 115 118 115 116 120
71 66 63 60 57 56 56 58 59 61 65 69 75 79 84 90 93 92 93 100 108 109 96 93 96 101 104 105 108 108 110 113 115 118 117 117 113 107
63 59 54 50 49 51 51 51 54 59 60 63 66 76 79 84 79 81 87 87 82 85 96 92 87 87 92 102 102 103 101 97 107 110 106 112 98 95
53 50 47 44 44 45 45 47 51 53 59 61 63 64 65 67 72 77 81 80 76 87 88 85 90 95 100 90 94 96 104 104 108 109 103 94 94 100
44 45 44 41 41 42 43 46 49 54 56 60 61 64 68 69 69 69 71 75 81 83 85 91 93 90 85 92 95 97 97 98 97 97 99 99 102 105
41 41 42 40 39 42 42 43 48 54 57 60 64 68 75 70 71 71 76 85 85 81 86 92 83 77 77 78 80 84 90 96 100 101 103 105 108 111
43 46 45 44 42 39 40 43 46 50 56 58 64 71 75 77 76 77 85 90 87 93 83 72 71 75 82 87 88 91 95 100 103 104 104 106 109 114
45 45 43 42 44 43 41 41 44 49 53 59 67 72 73 77 78 80 86 88 76 67 69 72 76 79 82 87 93 96 99 102 99 100 101 102 103 99
45 44 41 41 40 41 44 44 46 46 48 50 53 55 59 64 65 65 68 67 70 70 70 73 75 79 84 88 91 91 96 98 99 99 96 95 95 92
45 44 42 40 37 37 38 44 45 46 49 50 51 53 55 57 56 61 68 70 69 69 72 76 79 80 82 85 86 90 91 90 89 91 89 87 88 89
39 42 44 42 39 38 39 39 40 45 47 48 50 53 55 58 60 61 61 65 68 71 74 75 77 82 83 84 84 85 85 84 84 84 83 82 80 83
37 41 43 44 42 39 37 37 38 41 43 46 49 52 53 55 58 64 66 65 65 68 71 72 74 76 77 77 77 79 78 79 80 80 81 81 81 81
37 39 39 41 39 37 37 37 38 40 41 42 44 46 50 51 52 55 57 58 58 63 65 66 67 70 70 71 72 74 77 77 78 79 81 82 82 82
34 34 35 36 37 36 35 35 35 36 37 39 41 42 44 46 47 48 49 52 54 57 60 61 62 64 66 68 70 73 76 80 82 83 84 80 78 79
31 31 30 30 31 32 33 32 32 32 32 32 34 36 37 38 40 43 46 48 50 53 55 56 59 63 67 70 73 77 80 81 81 82 84 81 78 74

GFSNE_250_spd_222.txt.gz
Wind_Speed
91 93 95 100 107 117 119 126 125 122 116 114 112 107 105 102 105 105 106 108 107 105 105 108 107 104 101 92 93 98 103 100 96 94 91 88 86 82
95 97 103 113 122 122 132 131 125 123 124 117 117 111 108 105 100 104 108 112 116 111 109 109 106 101 98 96 90 96 100 98 92 97 96 94 93 95
103 109 119 129 132 135 130 124 123 129 136 130 126 122 118 112 105 103 107 108 116 115 115 114 112 110 103 105 107 112 111 111 104 101 101 94 93 94
117 124 135 137 127 125 125 123 125 128 133 128 126 124 116 109 97 97 96 97 102 110 113 110 111 110 110 107 108 109 114 107 109 107 102 95 93 98
125 126 124 123 120 126 132 132 133 125 119 113 103 104 101 97 96 96 92 84 82 90 96 100 105 105 108 104 107 110 114 113 116 114 106 99 99 99
126 126 121 122 128 129 129 123 114 104 98 92 90 85 83 80 78 80 87 92 88 83 79 84 97 107 105 103 107 106 109 114 118 116 113 105 104 101
125 123 123 126 124 122 113 104 93 87 83 78 75 73 71 72 71 73 74 79 80 82 80 83 85 95 99 104 109 107 103 114 110 118 113 109 108 105
126 128 128 123 116 106 95 88 81 78 72 70 67 65 65 64 63 65 67 69 72 75 78 83 80 85 90 100 106 118 108 108 108 107 110 104 103 100
134 123 116 106 97 88 82 77 72 69 65 63 61 60 58 57 56 58 58 61 65 69 76 81 83 86 87 95 103 116 108 107 103 100 102 102 103 103
121 115 102 90 83 77 73 68 64 62 58 58 54 50 49 48 47 51 54 55 60 68 72 75 76 87 90 89 93 93 84 85 85 87 86 90 100 99
110 98 87 80 74 68 67 62 59 57 54 52 47 45 44 44 44 46 49 52 56 59 65 68 71 74 76 81 87 88 87 86 82 87 86 86 93 98
96 86 79 73 67 64 62 60 56 53 50 45 42 42 40 41 40 41 43 45 47 49 56 65 67 68 70 72 75 78 82 82 88 93 88 90 87 83
85 77 72 68 63 60 57 57 51 48 44 40 39 39 38 35 34 35 36 39 43 48 53 56 59 60 61 62 68 76 81 82 82 81 80 87 89 87
75 70 67 64 59 55 53 53 47 44 39 38 37 38 37 34 30 29 30 34 37 40 48 52 52 56 64 69 71 74 77 81 81 81 84 88 92 95
68 65 63 59 55 49 51 49 43 39 37 36 36 37 36 34 32 32 30 32 37 42 46 50 52 54 56 61 65 67 70 75 76 77 83 87 91 94
63 60 57 54 50 48 50 46 41 35 35 32 34 36 36 36 34 35 37 38 37 41 46 48 51 53 58 61 66 69 70 73 76 76 78 80 84 87
58 55 51 50 44 45 48 42 36 31 32 30 30 33 36 37 37 36 39 42 45 47 51 53 54 57 61 65 68 70 72 74 76 76 78 81 83 83
53 49 46 44 40 42 47 42 38 30 29 30 29 29 34 36 37 40 41 45 48 51 54 55 56 60 61 61 65 69 74 78 80 81 81 83 86 86
48 46 42 42 39 41 44 40 32 26 24 26 30 32 33 34 38 40 44 47 48 51 55 56 58 61 65 67 68 69 72 76 79 80 82 84 85 85
45 42 42 42 37 40 42 39 35 31 29 29 31 32 35 38 38 39 43 46 48 48 50 52 55 57 59 61 63 65 67 68 70 73 76 78 80 83
43 40 41 38 38 41 40 38 35 33 33 32 30 32 34 36 37 38 39 41 43 45 48 50 51 53 55 57 60 62 64 67 69 72 74 75 77 78
41 39 39 35 37 36 37 35 34 35 34 33 32 31 31 33 35 36 37 39 40 42 45 48 50 53 55 58 60 63 64 64 66 68 70 71 73 75
39 39 34 35 35 35 35 35 35 35 33 32 30 28 28 29 32 35 36 38 40 42 44 46 48 50 51 53 55 58 59 60 62 65 68 67 71 74

GFSNE_250_spd_228.txt.gz
Wind_Speed
65 69 74 72 72 74 73 71 73 73 74 80 97 105 114 120 118 110 106 102 105 106 107 110 112 113 114 113 112 108 104 99 101 100 96 92 85 86
71 78 76 79 76 76 80 83 86 89 90 94 110 117 129 122 115 113 113 112 110 110 111 114 118 120 120 118 118 118 114 110 106 104 104 103 94 94
81 84 86 91 90 87 91 92 94 98 103 110 122 132 128 124 121 118 117 118 116 117 116 120 119 119 122 122 124 120 120 121 114 113 113 110 107 102
88 92 94 97 90 92 95 97 100 112 118 125 130 128 126 126 122 118 117 116 111 108 106 108 114 111 109 113 123 124 124 122 122 124 118 118 114 112
95 97 97 103 96 95 103 109 117 124 130 135 132 124 125 122 118 115 105 100 91 87 87 89 92 92 91 97 107 115 121 112 121 120 124 125 120 116
98 101 104 105 98 104 111 124 126 131 137 132 125 124 120 113 104 97 91 84 79 75 72 73 75 74 76 76 84 100 111 111 108 108 115 122 117 113
105 107 107 100 106 114 122 129 133 137 126 124 123 116 107 99 90 81 78 73 69 68 66 63 61 66 66 66 73 88 104 104 108 103 109 110 111 113
103 101 104 108 119 124 134 137 135 123 122 117 112 103 92 83 78 72 70 66 63 60 59 59 57 58 61 63 68 78 85 93 101 99 100 104 111 114
115 107 114 117 125 132 127 133 123 119 113 109 101 88 82 75 68 66 62 58 56 54 53 53 53 53 57 59 63 68 76 83 90 90 98 100 105 106
112 116 120 127 137 130 130 123 115 113 105 96 87 79 74 67 59 61 55 53 50 49 49 47 49 51 53 54 57 62 68 74 80 81 81 89 98 98
121 123 130 133 134 135 121 114 112 105 95 85 78 73 65 57 56 52 50 49 47 45 44 43 43 45 47 50 53 56 62 68 75 77 79 85 91 92
128 133 133 128 131 119 114 102 100 95 85 76 72 68 56 55 50 48 47 44 42 40 40 39 40 40 41 44 47 51 58 63 65 66 75 81 88 92
135 133 130 125 121 112 102 99 91 84 76 68 68 59 52 51 46 45 43 39 37 36 37 36 37 36 39 42 44 47 51 55 54 62 66 73 81 83
134 130 122 114 107 101 95 86 82 77 69 64 61 53 49 48 43 43 39 36 35 34 34 33 34 35 36 40 42 44 49 52 56 58 62 73 73 78
127 118 110 105 96 92 84 77 74 69 62 61 55 50 46 46 41 39 35 33 34 33 31 30 31 31 32 37 38 41 46 49 53 58 61 67 72 76
121 113 107 100 90 81 75 72 68 64 57 56 50 47 43 44 40 38 36 33 32 33 31 28 28 27 28 34 34 36 40 47 48 54 58 60 64 70
113 110 97 87 78 71 68 66 63 58 54 52 46 43 38 37 35 34 34 32 31 32 30 29 27 26 26 30 32 35 38 45 48 51 54 56 57 59
108 94 88 79 71 67 64 62 58 54 50 48 43 39 35 34 33 31 31 32 30 30 31 30 30 29 28 27 31 34 35 43 47 50 51 52 54 57
94 89 81 72 69 65 61 58 55 53 46 45 41 37 34 28 32 33 31 31 31 30 30 31 31 33 33 33 33 38 42 43 45 47 50 52 54 57
86 79 73 69 67 61 57 55 50 50 43 41 38 33 29 28 26 30 33 34 34 35 34 34 35 35 36 39 42 43 44 45 47 50 53 55 56 58
81 74 70 67 63 58 55 51 48 47 41 39 35 30 28 28 28 32 34 36 36 36 37 37 37 38 39 40 41 44 46 50 52 53 54 56 58 60
74 70 68 63 59 55 52 47 45 44 40 38 35 31 28 27 29 31 32 32 33 35 37 38 39 39 40 40 42 43 46 49 51 52 54 56 57 59
69 67 64 59 56 52 49 44 42 41 39 37 36 34 30 29 29 29 29 30 30 30 32 34 37 38 39 40 41 42 44 46 47 49 49 51 53 55

GFSNE_250_spd_234.txt.gz
Wind_Speed
62 58 63 66 69 68 70 72 71 74 78 85 86 86 87 88 91 94 96 93 93 90 86 94 98 100 105 110 114 118 119 118 119 116 112 108 101 98
61 62 65 66 70 75 77 81 85 86 87 90 91 92 95 96 96 97 99 101 100 102 102 108 111 117 114 116 120 122 117 119 114 113 113 112 111 107
54 56 62 65 70 75 79 84 85 89 87 91 93 93 94 98 102 105 106 105 107 113 118 118 125 117 117 116 119 120 122 121 122 118 118 116 115 117
62 64 67 72 76 79 82 90 94 96 99 100 99 99 97 104 100 102 110 117 123 128 121 118 117 116 114 117 116 115 112 112 112 113 115 112 109 113
62 67 75 75 79 82 91 94 88 86 88 87 92 96 101 104 109 115 122 128 127 119 111 108 107 109 107 103 103 102 96 95 93 93 93 93 94 101
72 78 78 77 88 96 97 87 87 89 90 94 97 105 106 111 123 129 127 121 116 115 105 103 101 100 91 87 86 83 80 79 79 78 77 76 77 87
81 79 86 87 95 98 89 86 90 94 102 107 111 114 122 128 127 125 116 108 102 102 98 92 85 80 75 73 72 72 72 70 70 70 68 67 69 76
85 87 96 101 102 100 88 94 98 105 109 113 119 126 128 128 114 104 97 96 95 89 81 74 71 68 65 63 64 63 61 62 61 60 60 63 63 67
94 97 100 103 95 93 89 96 104 110 116 124 132 130 118 106 102 99 92 88 83 76 70 68 65 61 59 57 55 54 55 54 53 53 54 58 61 65
102 106 109 99 96 88 97 105 112 115 120 130 126 123 104 98 95 90 86 77 73 69 65 62 59 55 53 51 50 48 48 50 49 48 52 53 57 64
103 109 106 89 88 95 103 110 116 125 131 125 123 103 99 96 92 86 79 69 69 65 61 57 53 50 47 45 44 44 44 46 45 44 49 52 53 62
110 102 90 93 91 106 113 118 120 124 126 121 110 104 96 92 85 78 71 66 63 59 54 50 46 44 43 42 41 40 40 40 40 41 48 51 54 59
97 91 91 94 106 108 113 115 122 125 126 115 103 98 94 87 77 71 65 60 58 53 48 44 43 41 39 39 38 36 35 38 39 40 44 49 52 57
88 95 101 103 109 108 115 123 124 122 119 106 99 93 86 78 71 66 59 56 53 48 44 41 39 38 37 35 34 32 34 34 36 39 42 46 50 54
94 101 99 101 104 111 121 129 124 116 105 98 93 89 79 73 69 63 57 52 48 44 40 37 36 36 36 34 33 31 30 31 33 36 39 43 47 50
94 103 104 105 108 118 125 123 114 104 98 92 89 81 73 70 65 61 54 48 44 41 38 36 35 34 32 32 32 32 30 30 31 33 37 40 43 46
99 105 104 110 115 119 122 117 100 99 94 90 84 77 71 67 63 59 52 46 43 40 37 35 33 32 31 30 31 31 31 30 31 32 34 36 39 42
105 105 109 115 113 119 117 106 99 97 92 87 80 75 69 66 61 55 50 45 42 38 36 33 32 32 30 29 29 30 31 31 31 31 33 36 37 39
109 110 109 113 115 117 113 108 99 91 90 84 77 71 68 63 58 52 47 42 41 38 35 34 33 32 32 32 31 30 32 32 32 32 34 35 38 38
112 108 109 115 121 120 116 104 94 88 86 79 74 69 65 60 55 49 47 41 40 38 35 35 36 35 35 35 36 36 34 34 35 34 34 35 35 37
113 110 108 113 121 120 108 96 89 88 82 75 70 65 61 57 52 48 45 42 39 39 37 35 35 36 37 38 39 39 39 39 38 39 39 38 38 39
108 105 107 115 119 111 101 91 88 82 76 70 66 61 56 53 49 45 43 42 39 38 37 36 36 36 37 37 38 40 41 42 43 43 42 43 44 43
103 105 111 122 118 106 94 89 83 76 70 66 61 56 52 50 46 43 41 41 38 36 37 36 37 38 38 38 38 39 41 41 43 45 46 45 44 44

GFSNE_250_spd_237.txt.gz
Wind_Speed
51 56 59 46 52 52 52 62 61 64 72 72 71 75 84 92 97 99 93 95 101 102 104 104 105 106 106 108 106 106 104 106 106 106 105 109 113 114
54 58 59 60 54 55 60 59 69 73 70 74 79 87 95 102 85 89 90 93 98 98 102 104 107 109 110 111 112 116 117 119 118 119 119 121 121 120
64 64 63 61 63 64 66 71 74 78 77 88 95 100 87 85 88 92 94 92 95 101 101 104 111 113 118 121 124 122 127 120 128 129 127 124 124 124
65 63 66 65 67 74 74 75 76 82 90 97 107 93 94 96 90 94 97 101 105 111 115 114 115 116 117 114 118 127 126 120 113 112 113 113 115 116
58 63 70 65 74 80 79 81 89 97 102 105 101 93 91 94 101 107 113 118 120 118 116 115 112 110 112 111 111 111 106 102 98 96 95 97 103 106
64 65 72 74 81 84 85 92 99 104 110 108 98 94 96 104 110 115 124 126 115 112 106 103 103 101 100 99 99 92 92 91 86 82 81 85 84 87
63 70 78 81 86 90 94 100 105 109 110 96 95 96 105 116 123 121 124 119 112 97 95 93 89 89 86 79 74 73 74 71 70 68 69 70 70 71
68 77 84 84 87 85 92 100 109 105 94 97 101 110 115 117 122 125 123 109 100 99 92 86 80 73 68 66 64 61 61 60 58 57 59 59 58 58
74 81 89 85 93 93 100 104 102 97 98 103 107 109 113 123 127 128 120 106 97 93 84 75 69 65 62 58 56 54 53 51 50 49 48 47 48 52
81 84 86 88 98 99 102 97 100 96 101 108 113 111 120 128 125 125 108 102 93 84 75 70 66 61 56 54 51 48 47 44 42 42 41 39 42 47
88 93 91 93 100 101 94 97 102 104 106 114 115 119 126 128 122 111 101 92 83 74 71 66 61 56 53 50 47 43 42 41 39 38 37 36 41 43
96 91 95 92 99 101 96 99 105 109 107 117 113 120 125 122 117 102 92 83 74 70 66 61 57 52 49 46 43 41 38 37 36 34 33 36 38 39
91 95 93 97 100 98 99 106 108 106 111 121 115 124 124 118 103 93 85 77 70 64 61 58 53 49 45 43 40 37 36 34 32 32 32 33 37 38
90 97 98 103 96 93 101 108 111 110 119 124 122 122 118 107 97 89 79 73 66 60 57 53 49 45 43 40 38 36 33 32 32 31 31 32 35 37
94 97 98 99 97 101 105 118 116 117 123 125 119 121 116 104 95 86 76 71 64 56 53 50 45 43 41 38 37 35 33 31 31 30 30 31 32 37
100 100 102 95 101 105 113 119 114 117 111 116 120 119 109 98 92 80 74 70 62 53 50 48 43 40 38 37 35 33 32 30 29 29 29 29 31 35
96 98 99 97 102 108 113 113 113 112 115 115 115 113 104 96 86 78 74 68 61 54 47 46 42 38 36 33 32 33 32 30 29 29 29 29 30 34
98 99 98 100 105 109 108 112 117 114 114 115 112 107 99 93 82 77 72 65 59 55 49 42 40 38 35 32 31 31 32 31 30 30 30 31 31 31
97 98 99 105 107 108 113 116 115 111 110 112 111 103 95 87 79 76 71 63 58 54 50 44 38 37 36 33 32 32 33 33 33 33 32 32 32 32
97 98 105 108 105 111 115 118 111 106 108 110 108 102 89 83 77 73 68 62 57 53 47 43 40 36 35 35 34 33 33 35 36 37 37 35 35 35
97 102 107 108 108 114 117 116 112 107 107 104 107 98 86 79 73 70 65 60 56 52 47 42 38 38 36 35 33 33 35 36 37 38 39 40 40 39
101 105 109 107 107 112 114 111 107 104 107 104 100 92 82 75 71 66 62 58 54 50 46 42 38 37 37 36 35 36 36 37 37 38 39 40 42 43
102 102 107 107 114 116 113 111 102 106 108 101 95 84 79 73 69 63 58 54 50 48 45 42 39 37 38 37 38 37 37 37 39 39 39 39 41 42

GFSNE_250_spd_240.txt.gz
Wind_Speed
49 48 48 50 54 59 66 59 54 58 62 71 73 70 72 81 86 95 101 103 97 88 87 87 89 91 94 95 98 99 104 104 110 110 112 114 113 114
50 51 52 55 58 64 64 62 61 67 67 72 76 79 86 92 98 99 102 96 89 89 95 100 104 107 110 111 110 110 110 112 115 120 124 126 123 123
54 54 56 56 60 65 67 58 66 75 75 75 81 85 87 95 100 97 100 94 96 103 110 116 118 120 117 115 107 105 103 104 105 112 117 123 125 124
55 59 57 59 66 65 63 65 73 78 81 83 86 90 95 98 104 99 99 99 104 114 122 128 126 119 108 99 93 93 95 96 98 103 104 102 107 111
55 59 63 65 68 67 61 66 73 80 83 83 93 97 103 101 101 101 107 113 116 118 129 125 119 111 101 91 88 86 84 88 87 89 88 91 90 91
59 63 64 68 71 68 69 71 82 85 89 90 98 101 107 100 100 103 116 124 122 131 138 125 117 105 99 93 85 80 73 70 71 71 72 73 73 75
64 64 68 72 67 72 75 80 86 88 97 103 104 106 106 104 104 110 124 125 128 138 133 126 111 101 93 86 77 72 66 62 60 60 61 59 58 61
63 67 69 70 67 77 80 86 90 96 104 105 107 103 101 105 110 118 125 125 127 135 129 120 103 95 85 77 71 66 59 55 51 50 51 50 50 51
65 68 70 69 75 79 85 89 96 101 101 104 109 99 109 110 113 124 129 124 131 128 125 109 98 88 79 71 65 60 54 49 46 44 42 41 41 45
71 67 72 73 75 79 88 93 98 99 100 105 105 109 111 114 120 128 123 129 130 126 116 101 91 82 74 66 61 56 50 44 41 39 36 34 35 39
71 76 73 72 80 84 91 95 96 99 104 109 106 109 114 116 124 128 128 134 130 123 102 92 85 77 70 63 56 50 45 42 37 35 34 31 34 36
74 74 78 83 88 91 91 94 98 102 107 105 107 112 117 122 131 130 131 130 129 116 96 85 79 72 65 58 51 46 42 39 35 32 32 31 31 34
81 83 86 90 89 93 97 99 103 103 103 105 111 112 120 125 136 129 132 128 124 106 89 80 74 67 61 55 48 43 41 37 34 32 30 28 31 32
83 85 85 88 89 96 99 101 101 101 105 110 112 116 123 128 132 131 128 126 122 103 86 78 70 65 58 52 46 42 38 36 34 31 29 29 30 32
85 87 90 89 95 97 100 100 101 99 106 111 115 120 127 132 123 132 124 120 108 96 84 77 67 62 55 50 45 40 37 34 32 30 29 28 29 32
89 92 94 96 97 99 102 101 102 102 109 116 118 123 128 121 130 127 119 117 104 92 83 77 65 58 55 49 44 40 36 34 31 29 29 29 28 30
93 95 96 100 99 101 102 96 100 104 112 115 119 124 127 124 130 125 119 112 101 88 81 74 64 55 53 49 43 39 36 34 31 29 29 28 29 30
90 92 95 95 99 101 97 96 100 106 113 116 121 126 130 124 129 123 118 103 94 86 78 71 62 56 50 48 43 38 36 35 34 32 30 29 29 30
92 95 99 100 100 98 100 97 103 111 116 119 126 131 120 125 124 126 121 99 87 83 75 67 61 57 50 45 42 39 35 34 35 34 32 32 32 32
97 98 98 100 98 100 98 103 105 112 114 121 125 110 119 122 126 123 107 93 85 79 71 63 60 56 49 45 41 38 36 34 34 33 33 35 36 37
97 101 102 99 98 98 100 104 106 110 116 123 117 113 124 126 126 118 103 91 82 77 67 62 58 54 48 42 40 39 36 35 35 35 35 36 37 37
98 98 99 99 98 95 101 104 107 111 120 127 114 119 127 124 123 107 95 86 80 73 65 61 57 53 47 42 39 38 38 38 36 35 36 37 38 38
97 97 93 93 92 98 103 104 109 114 121 111 114 121 119 120 111 101 94 85 79 70 64 60 56 51 47 43 40 39 39 38 37 37 37 37 38 39